Regional Weather Roundup
Issued by NWS Sioux Falls, SD

Home | Current Version | Previous Version | Graphics & Text | Print | Product List | Glossary On
Versions: 1 2 3 4 5 6 7 8 9 10 11 12 13 14 15 16 17 18 19 20 21 22 23 24 25 26 27 28 29 30 31 32 33 34 35 36 37 38 39 40 41 42 43 44 45 46 47 48 49 50
000
ASUS43 KFSD 160710
RWRFSD

WEATHER ROUNDUP FOR SE SOUTH DAKOTA/SW MINNESOTA/NW IOWA
NATIONAL WEATHER SERVICE SIOUX FALLS SD
200 AM CDT TUE SEP 16 2014

NOTE: "FAIR" INDICATES FEW OR NO CLOUDS BELOW 12,000 FEET WITH NO
SIGNIFICANT WEATHER AND OR OBSTRUCTIONS TO VISIBILITY.


SDZ038>040-050-052>070-160800-
SOUTHEAST SOUTH DAKOTA

CITY           SKY/WX    TMP DP  RH WIND       PRES   REMARKS
CHAMBERLAIN    CLEAR     43  39  85 SE6       30.18S
HURON          CLEAR     42  35  76 S5        30.19F
MADISON        FAIR      39  39 100 S3        30.23S
MITCHELL       CLEAR     44  39  82 S8        30.21F
SIOUX FALLS    CLEAR     43  41  93 CALM      30.23F
WINNER         FAIR      52  39  61 S10       30.15F
YANKTON        CLEAR     45  39  81 CALM      30.25R
$$

MNZ071-072-080-081-089-090-097-098-160800-
SOUTHWEST MINNESOTA

CITY           SKY/WX    TMP DP  RH WIND       PRES   REMARKS
FAIRMONT       CLEAR     41  36  81 CALM      30.24S
JACKSON        CLEAR     39  37  93 CALM      30.25S
LUVERNE        CLEAR     41  37  87 CALM      30.25S
MARSHALL       CLEAR     43  37  81 SW9       30.21F
MONTEVIDEO     CLEAR     43  36  75 SW6       30.22S
PIPESTONE      CLEAR     43  37  81 CALM      30.23S
REDWOOD FALLS  CLEAR     42  37  82 SW8       30.22F
TRACY          CLEAR     46  42  86 CALM      30.23F
WINDOM         CLEAR     41  39  93 CALM      30.24F
WORTHINGTON    CLEAR     39  36  87 SW5       30.25S
$$

IAZ001>003-012>014-020>022-031-032-NEZ013-014-SDZ071-160800-
NORTHWEST IOWA

CITY           SKY/WX    TMP DP  RH WIND       PRES   REMARKS
CHEROKEE       CLEAR     37  37 100 CALM      30.26S
DENISON        CLEAR     41  41 100 CALM      30.25S
ESTHERVILLE    CLEAR     40  38  93 W6        30.25R
LE MARS          N/A     39  39 100 CALM      30.27R
ORANGE CITY    CLEAR     46  41  81 CALM      30.25S
SHELDON        CLEAR     37  37 100 CALM      30.24S
SIOUX CITY     CLEAR     41  39  93 CALM      30.27R
SPENCER        CLEAR     38  37  97 CALM      30.26R FOG
STORM LAKE     CLEAR     43  43 100 SW5       30.26S
$$

ABBREVIATIONS USED IN REMARKS
   TC - TEMPERATURE IN CELSIUS
  WCI - WIND CHILL INDEX
   HX - HEAT INDEX
  VSB - VISIBILITY




USA.gov is the U.S. government's official web portal to all federal, state and local government web resources and services.